ROCKWY Weather Reports


Display with metric or nautical units.
time (UTC)temp
F
wind
direction
speed
MPH
gust
MPH
rain 1hr
in
rain 24hr
in
rain mn
in
humidity
%
barometer
mb
20171119234559 49 0 0.0 0.0 0.00 0.00 0.00 86 1008.7
20171119231559 49 0 0.0 0.0 0.00 0.00 0.00 83 1009.4
20171119222559 50 0 0.0 0.0 0.00 0.00 0.00 75 1010.7
20171119221559 50 0 0.0 0.0 0.00 0.00 0.00 73 1010.9
20171119214559 49 0 0.0 0.0 0.00 0.00 0.00 72 1011.4
20171119210059 49 0 0.0 0.0 0.00 0.00 0.00 76 1012.6
20171119205559 49 0 0.0 0.0 0.00 0.00 0.00 77 1012.6
20171119204559 49 0 0.0 0.0 0.00 0.00 0.00 79 1012.6
20171119202559 49 0 0.0 0.0 0.00 0.00 0.00 76 1012.3
20171119202059 49 0 0.0 0.0 0.00 0.00 0.00 77 1012.5
20171119201059 49 0 0.0 0.0 0.00 0.00 0.00 78 1012.7
20171119192559 48 0 0.0 0.0 0.00 0.00 0.00 77 1014.3
20171119191559 48 0 0.0 0.0 0.00 0.00 0.00 75 1014.5
20171119190059 48 0 0.0 0.0 0.00 0.00 0.00 75 1015.2
20171119185559 48 0 0.0 0.0 0.00 0.00 0.00 72 1015.4
20171119184559 48 0 0.0 0.0 0.00 0.00 0.00 75 1015.7
20171119184059 48 0 0.0 0.0 0.00 0.00 0.00 75 1015.7
20171119181559 47 0 0.0 0.0 0.00 0.00 0.00 74 1015.7
20171119175101 47 0 0.0 0.0 0.00 0.00 0.00 79 1016.4
20171119174059 47 0 0.0 0.0 0.00 0.00 0.00 81 1016.4
20171119171559 46 0 0.0 2.0 0.00 0.00 0.00 86 1016.9
20171119171059 46 345 0.0 2.0 0.00 0.00 0.00 85 1016.9
20171119164600 45 0 0.0 0.0 0.00 0.00 0.00 86 1017.3
20171119161059 45 0 0.0 0.0 0.00 0.00 0.00 84 1017.4
20171119160058 45 0 0.0 11.0 0.00 0.00 0.00 86 1017.4
20171119155558 45 0 0.0 11.0 0.00 0.00 0.00 87 1017.5
20171119154558 45 0 0.0 0.0 0.00 0.00 0.00 87 1017.7
20171119154058 44 0 0.0 10.0 0.00 0.00 0.00 87 1017.8
20171119152559 44 357 0.0 9.0 0.00 0.00 0.00 86 1018.2
20171119151058 44 0 0.0 0.0 0.00 0.00 0.00 86 1018.5
20171119145558 44 0 0.0 0.0 0.00 0.00 0.00 83 1018.6
20171119144559 44 0 0.0 0.0 0.00 0.00 0.00 82 1018.9
20171119140058 44 357 0.0 5.0 0.00 0.00 0.00 76 1019.0
20171119135558 44 357 0.0 5.0 0.00 0.00 0.00 76 1019.0
20171119131058 45 0 0.0 0.0 0.00 0.00 0.00 72 1019.2
20171119130058 45 0 0.0 0.0 0.00 0.00 0.00 76 1019.3
20171119125558 45 0 0.0 0.0 0.00 0.00 0.00 76 1019.3
20171119123058 45 0 0.0 0.0 0.00 0.00 0.00 78 1019.1
20171119121059 45 0 0.0 0.0 0.00 0.00 0.00 79 1019.5
20171119120559 45 0 0.0 0.0 0.00 0.00 0.00 80 1019.5
20171119120058 45 0 0.0 0.0 0.00 0.00 0.00 80 1019.7
20171119115558 45 0 0.0 0.0 0.00 0.00 0.00 80 1019.9
20171119111058 44 0 0.0 0.0 0.00 0.00 0.00 82 1020.5
20171119105058 44 0 0.0 0.0 0.00 0.00 0.00 83 1020.7
20171119103058 44 0 0.0 0.0 0.00 0.00 0.00 81 1020.4
20171119085558 44 0 0.0 0.0 0.00 0.00 0.00 88 1021.3
20171119084558 44 0 0.0 0.0 0.00 0.00 0.00 89 1021.2
20171119084058 43 0 0.0 0.0 0.00 0.00 0.00 89 1021.2
20171119071058 43 0 0.0 0.0 0.00 0.00 0.00 92 1021.8
20171119064558 44 0 0.0 0.0 0.00 0.00 0.00 92 1021.9
20171119061058 44 0 0.0 0.0 0.00 0.00 0.00 93 1021.9
20171119060058 44 0 0.0 5.0 0.00 0.00 0.00 94 1021.9
20171119054558 44 0 0.0 0.0 0.00 0.00 0.00 95 1022.0
20171119054058 44 0 0.0 0.0 0.00 0.00 0.00 95 1022.0
20171119053558 44 0 0.0 0.0 0.00 0.00 0.00 95 1021.9
20171119051058 44 0 0.0 0.0 0.00 0.00 0.00 95 1022.2
20171119044558 45 0 0.0 0.0 0.00 0.00 0.00 96 1022.5
20171119044058 45 0 0.0 0.0 0.00 0.00 0.00 96 1022.5
20171119041058 45 0 0.0 0.0 0.00 0.00 0.00 95 1022.5
20171119040058 45 0 0.0 0.0 0.00 0.00 0.00 95 1022.7
20171119035558 45 0 0.0 0.0 0.00 0.00 0.00 95 1022.7
20171119034058 45 0 0.0 0.0 0.00 0.00 0.00 93 1022.9
20171119031058 46 0 0.0 0.0 0.00 0.00 0.00 92 1022.7
20171119015557 47 0 0.0 0.0 0.00 0.00 0.00 95 1022.6
20171119014557 47 0 0.0 0.0 0.00 0.00 0.00 96 1022.6
20171119005601 48 0 0.0 0.0 0.00 0.00 0.00 93 1022.5
20171119001557 49 0 0.0 0.0 0.00 0.00 0.00 91 1022.4
20171119001057 49 0 0.0 0.0 0.00 0.00 0.00 91 1022.4